NJ3J Weather Reports


time (UTC)temp
C
wind
direction
speed
KPH
gust
KPH
rain 1hr
cm
rain 24hr
cm
rain mn
cm
humidity
%
barometer
mb
20260504110518 15 189 3.2 8.0 0.00 0.00 0.00 70 1012.3
20260504100516 15 206 3.2 9.7 0.00 0.00 0.00 66 1012.2
20260504081518 16 205 3.2 9.7 0.00 0.00 0.00 60 1012.3
20260504081018 16 218 6.4 12.9 0.00 0.00 0.00 60 1012.3
20260504080558 16 202 3.2 8.0 0.00 0.00 0.00 59 1012.3
20260504050516 16 208 4.8 9.7 0.00 0.00 0.00 54 1013.7
20260504050017 16 195 4.8 12.9 0.00 0.00 0.00 53 1013.6
20260504045517 16 219 4.8 14.5 0.00 0.00 0.00 53 1013.7
20260504045017 16 216 4.8 11.3 0.00 0.00 0.00 53 1013.8
20260504044537 16 209 4.8 12.9 0.00 0.00 0.00 53 1013.7
20260504044017 16 217 4.8 12.9 0.00 0.00 0.00 53 1013.8
20260504043537 16 218 4.8 11.3 0.00 0.00 0.00 52 1013.8
20260504043015 16 221 6.4 14.5 0.00 0.00 0.00 52 1013.8
20260504042516 16 205 4.8 12.9 0.00 0.00 0.00 52 1013.8
20260504042016 16 201 4.8 11.3 0.00 0.00 0.00 52 1013.8
20260504041515 16 199 4.8 14.5 0.00 0.00 0.00 53 1013.8
20260504041016 16 207 4.8 9.7 0.00 0.00 0.00 54 1013.8
20260504040516 16 206 4.8 12.9 0.00 0.00 0.00 54 1013.9
20260504040016 16 181 3.2 8.0 0.00 0.00 0.00 55 1014.0
20260504035516 16 202 3.2 11.3 0.00 0.00 0.00 54 1014.0
20260504035016 16 201 4.8 9.7 0.00 0.00 0.00 54 1014.0
20260504034516 16 185 3.2 9.7 0.00 0.00 0.00 54 1014.1
20260504034016 16 186 3.2 9.7 0.00 0.00 0.00 54 1014.1
20260504033517 16 206 3.2 9.7 0.00 0.00 0.00 55 1014.1
20260504033036 16 202 4.8 11.3 0.00 0.00 0.00 55 1014.2
20260504032517 16 215 3.2 11.3 0.00 0.00 0.00 55 1014.2
20260504032017 15 183 3.2 9.7 0.00 0.00 0.00 55 1014.2
20260504031536 15 192 3.2 11.3 0.00 0.00 0.00 56 1014.2
20260504031017 15 181 1.6 6.4 0.00 0.00 0.00 56 1014.3
20260504030517 15 184 3.2 8.0 0.00 0.00 0.00 56 1014.3
20260504030017 15 178 3.2 6.4 0.00 0.00 0.00 56 1014.3
20260504025517 15 175 3.2 8.0 0.00 0.00 0.00 56 1014.2
20260504025037 15 170 3.2 4.8 0.00 0.00 0.00 56 1014.1
20260504024517 15 165 3.2 6.4 0.00 0.00 0.00 55 1014.1
20260504024017 15 164 3.2 9.7 0.00 0.00 0.00 56 1014.2
20260504023517 15 162 3.2 8.0 0.00 0.00 0.00 56 1014.3
20260504023017 15 164 3.2 6.4 0.00 0.00 0.00 56 1014.4
20260504022518 15 171 3.2 8.0 0.00 0.00 0.00 56 1014.4
20260504022017 16 161 1.6 6.4 0.00 0.00 0.00 55 1014.4
20260504021537 16 164 1.6 4.8 0.00 0.00 0.00 55 1014.4
20260504021018 16 165 1.6 6.4 0.00 0.00 0.00 55 1014.3
20260504020518 16 156 1.6 6.4 0.00 0.00 0.00 55 1014.4
20260504020018 16 160 1.6 4.8 0.00 0.00 0.00 54 1014.4
20260504015517 16 156 1.6 4.8 0.00 0.00 0.00 54 1014.4
20260504015018 16 165 1.6 6.4 0.00 0.00 0.00 53 1014.4
20260504014538 16 153 1.6 6.4 0.00 0.00 0.00 53 1014.4
20260504014018 16 154 1.6 4.8 0.00 0.00 0.00 52 1014.3
20260504013518 17 160 1.6 4.8 0.00 0.00 0.00 51 1014.3
20260504013015 17 157 3.2 6.4 0.00 0.00 0.00 50 1014.3
20260504012536 17 149 3.2 6.4 0.00 0.00 0.00 50 1014.2
20260504012015 17 149 3.2 6.4 0.00 0.00 0.00 50 1014.3
20260504011516 17 151 1.6 4.8 0.00 0.00 0.00 49 1014.3
20260504011016 17 146 1.6 3.2 0.00 0.00 0.00 49 1014.3
20260504010516 17 150 1.6 4.8 0.00 0.00 0.00 49 1014.3
20260504010016 18 148 1.6 4.8 0.00 0.00 0.00 48 1014.3
20260504005516 18 164 1.6 6.4 0.00 0.00 0.00 47 1014.2
20260504005016 18 185 3.2 9.7 0.00 0.00 0.00 47 1014.2
20260504004516 18 179 1.6 4.8 0.00 0.00 0.00 47 1014.1
20260504004016 18 162 3.2 11.3 0.00 0.00 0.00 46 1014.1
20260504003536 18 179 3.2 6.4 0.00 0.00 0.00 46 1014.1
20260504003016 19 196 3.2 8.0 0.00 0.00 0.00 45 1014.2
20260504002516 19 180 3.2 8.0 0.00 0.00 0.00 45 1014.2
20260504002017 20 197 3.2 9.7 0.00 0.00 0.00 44 1014.3
20260504001517 20 182 3.2 8.0 0.00 0.00 0.00 44 1014.3
20260504001017 20 179 3.2 11.3 0.00 0.00 0.00 43 1014.3
20260504000517 20 194 3.2 9.7 0.00 0.00 0.00 43 1014.2
20260504000017 20 183 4.8 16.1 0.00 0.00 0.00 42 1014.2
20260503235517 20 189 4.8 16.1 0.00 0.00 0.00 42 1014.2
20260503235017 20 219 4.8 12.9 0.00 0.00 0.00 42 1014.3
20260503234517 20 187 4.8 11.3 0.00 0.00 0.00 41 1014.4
20260503234017 21 201 4.8 9.7 0.00 0.00 0.00 41 1014.4
20260503233517 21 179 4.8 9.7 0.00 0.00 0.00 41 1014.4
20260503233017 21 189 4.8 9.7 0.00 0.00 0.00 41 1014.6
20260503232518 21 179 4.8 9.7 0.00 0.00 0.00 40 1014.7
20260503232018 21 202 4.8 11.3 0.00 0.00 0.00 40 1014.7
20260503231518 21 201 4.8 11.3 0.00 0.00 0.00 40 1014.8
20260503231018 21 216 4.8 9.7 0.00 0.00 0.00 40 1014.8
20260503230517 21 205 4.8 11.3 0.00 0.00 0.00 39 1014.8
20260503230038 21 199 4.8 11.3 0.00 0.00 0.00 39 1014.8
20260503225518 21 221 6.4 16.1 0.00 0.00 0.00 39 1014.8
20260503225018 21 194 6.4 11.3 0.00 0.00 0.00 39 1014.9
20260503224518 21 217 6.4 14.5 0.00 0.00 0.00 40 1015.0
20260503224018 21 246 6.4 16.1 0.00 0.00 0.00 40 1015.0
20260503223538 21 211 6.4 14.5 0.00 0.00 0.00 40 1015.0
20260503223016 21 161 4.8 11.3 0.00 0.00 0.00 40 1015.0
20260503222516 21 235 6.4 12.9 0.00 0.00 0.00 39 1015.1
20260503222015 21 200 8.0 19.3 0.00 0.00 0.00 39 1015.1
20260503221536 21 227 4.8 9.7 0.00 0.00 0.00 40 1015.1
20260503221036 21 219 4.8 11.3 0.00 0.00 0.00 40 1015.2
20260503220516 21 204 6.4 14.5 0.00 0.00 0.00 39 1015.2
20260503220016 21 203 6.4 12.9 0.00 0.00 0.00 40 1015.3
20260503215516 21 204 6.4 12.9 0.00 0.00 0.00 40 1015.4
20260503215016 21 204 6.4 12.9 0.00 0.00 0.00 40 1015.5
20260503214516 21 216 4.8 8.0 0.00 0.00 0.00 40 1015.6
20260503214016 21 163 6.4 14.5 0.00 0.00 0.00 40 1015.7
20260503213516 21 185 4.8 12.9 0.00 0.00 0.00 40 1015.7
20260503213016 21 238 8.0 14.5 0.00 0.00 0.00 40 1015.8
20260503212516 21 170 4.8 11.3 0.00 0.00 0.00 39 1015.8
20260503212017 21 206 4.8 12.9 0.00 0.00 0.00 40 1015.8
20260503211517 20 176 4.8 14.5 0.00 0.00 0.00 40 1016.0
20260503211017 20 214 6.4 17.7 0.00 0.00 0.00 40 1016.1
20260503210517 20 196 6.4 12.9 0.00 0.00 0.00 40 1016.1
20260503210017 20 265 9.7 17.7 0.00 0.00 0.00 40 1016.2
20260503205537 20 230 8.0 16.1 0.00 0.00 0.00 40 1016.3
20260503205037 20 239 8.0 16.1 0.00 0.00 0.00 39 1016.4
20260503204517 20 240 6.4 17.7 0.00 0.00 0.00 41 1016.5
20260503204038 21 241 9.7 20.9 0.00 0.00 0.00 40 1016.5
20260503203517 20 206 4.8 14.5 0.00 0.00 0.00 40 1016.6
20260503203017 20 206 4.8 12.9 0.00 0.00 0.00 41 1016.7
20260503202538 20 186 4.8 11.3 0.00 0.00 0.00 42 1016.8
20260503202018 20 186 8.0 16.1 0.00 0.00 0.00 41 1016.9
20260503201518 20 176 4.8 11.3 0.00 0.00 0.00 41 1017.0
20260503201018 20 202 4.8 14.5 0.00 0.00 0.00 42 1017.1
20260503200518 20 234 8.0 16.1 0.00 0.00 0.00 41 1017.3
20260503200038 20 216 6.4 14.5 0.00 0.00 0.00 41 1017.4
20260503195518 20 209 4.8 12.9 0.00 0.00 0.00 41 1017.5
20260503195018 20 193 6.4 14.5 0.00 0.00 0.00 42 1017.5
20260503194538 20 242 6.4 12.9 0.00 0.00 0.00 42 1017.6
20260503194018 20 239 8.0 16.1 0.00 0.00 0.00 41 1017.7
20260503193515 20 178 4.8 14.5 0.00 0.00 0.00 42 1017.8
20260503193036 19 222 4.8 16.1 0.00 0.00 0.00 42 1017.9
20260503192516 19 253 8.0 20.9 0.00 0.00 0.00 43 1017.9
20260503192016 19 255 6.4 11.3 0.00 0.00 0.00 42 1018.0
20260503191516 19 251 6.4 14.5 0.00 0.00 0.00 42 1018.2
20260503191016 19 226 8.0 12.9 0.00 0.00 0.00 42 1018.2
20260503190516 19 258 4.8 12.9 0.00 0.00 0.00 42 1018.3
20260503190036 19 274 6.4 14.5 0.00 0.00 0.00 44 1018.4
20260503185516 19 270 9.7 17.7 0.00 0.00 0.00 43 1018.4
20260503185036 19 250 6.4 12.9 0.00 0.00 0.00 42 1018.4
20260503184516 18 240 4.8 9.7 0.00 0.00 0.00 44 1018.5
20260503184016 18 205 6.4 12.9 0.00 0.03 0.00 42 1018.6
20260503183517 18 174 6.4 17.7 0.00 0.03 0.00 43 1018.6
20260503183017 18 265 6.4 20.9 0.00 0.03 0.00 44 1018.8
20260503182516 18 253 6.4 20.9 0.00 0.03 0.00 43 1018.8
20260503182017 18 220 6.4 14.5 0.00 0.03 0.00 44 1018.9
20260503181517 18 231 6.4 14.5 0.00 0.03 0.00 45 1018.9
20260503181017 18 224 6.4 17.7 0.00 0.03 0.00 43 1018.9
20260503180517 18 201 4.8 12.9 0.00 0.03 0.00 44 1018.9
20260503180017 18 228 4.8 9.7 0.00 0.03 0.00 44 1019.0
20260503175537 18 245 6.4 12.9 0.00 0.03 0.00 43 1019.1
20260503175057 18 199 4.8 12.9 0.00 0.03 0.00 44 1019.1
20260503174517 18 203 6.4 14.5 0.00 0.03 0.00 45 1019.1
20260503174017 18 162 4.8 14.5 0.00 0.03 0.00 45 1019.1
20260503173517 18 176 4.8 14.5 0.00 0.03 0.00 45 1019.3
20260503173017 18 204 6.4 16.1 0.00 0.03 0.00 45 1019.3
20260503172518 17 194 4.8 12.9 0.00 0.03 0.00 45 1019.3
20260503172018 17 178 4.8 12.9 0.00 0.03 0.00 44 1019.5
20260503171518 17 235 8.0 17.7 0.00 0.03 0.00 44 1019.6
20260503171018 17 254 6.4 16.1 0.00 0.03 0.00 48 1019.6
20260503170518 17 258 8.0 17.7 0.00 0.03 0.00 46 1019.7
20260503150517 15 183 4.8 11.3 0.00 0.03 0.00 56 1020.9
20260503131015 8 192 3.2 8.0 0.00 0.03 0.00 93 1021.1
20260503130516 8 207 1.6 6.4 0.00 0.03 0.00 96 1021.0